When you browse on this site, cookies collect data to enhance your experience and personalize the content and advertising you see.
Visit our Privacy Policy to learn more. By continuing to use the site, you agree to this use of cookies and data.
  • In Hungary
  • List of Countries
  • For 7 days
  • Water Temperature
  • Satellite Maps
  • Weather Map
  • News
  • Weather Widgets
  • user-avatar
    Login

    Hourly Weather Szczotkowice

    Today, 26 May, Sunday

    Time Temperature Precipitation Wind Pressure Humidity
    00:00 +13°C° 0 mm 1 mps 740 mmHg 89%
    01:00 +13°C° 0 mm 1 mps 740 mmHg 89%
    02:00 +12°C° 0.4 mm 1 mps 740 mmHg 90%
    03:00 +12°C° 0.4 mm 1 mps 740 mmHg 91%
    04:00 +12°C° 0.4 mm 1 mps 740 mmHg 92%
    05:00 +13°C° 0 mm 1 mps 740 mmHg 89%
    06:00 +15°C° 0 mm 2 mps 740 mmHg 86%
    07:00 +17°C° 0 mm 2 mps 740 mmHg 81%
    08:00 +18°C° 0.5 mm 3 mps 740 mmHg 77%
    09:00 +19°C° 0.5 mm 3 mps 740 mmHg 74%
    10:00 +20°C° 0.5 mm 4 mps 740 mmHg 70%
    11:00 +21°C° 0.1 mm 3 mps 740 mmHg 67%
    12:00 +21°C° 0.1 mm 3 mps 740 mmHg 63%
    13:00 +22°C° 0.1 mm 3 mps 740 mmHg 59%
    14:00 +22°C° 0.1 mm 3 mps 739 mmHg 59%
    15:00 +22°C° 0.1 mm 3 mps 739 mmHg 59%
    16:00 +23°C° 0.1 mm 2 mps 739 mmHg 59%
    17:00 +21°C° 0.1 mm 2 mps 739 mmHg 65%
    18:00 +20°C° 0.1 mm 1 mps 739 mmHg 71%
    19:00 +19°C° 0.1 mm 1 mps 739 mmHg 77%
    20:00 +18°C° 0 mm 1 mps 739 mmHg 81%
    21:00 +16°C° 0 mm 1 mps 739 mmHg 84%
    22:00 +15°C° 0 mm 2 mps 739 mmHg 87%
    23:00 +15°C° 0 mm 2 mps 739 mmHg 89%

    Tomorrow, 27 May, Monday

    Time Temperature Precipitation Wind Pressure Humidity
    00:00 +14°C° 0 mm 2 mps 739 mmHg 90%
    01:00 +14°C° 0 mm 2 mps 739 mmHg 92%
    02:00 +14°C° 0 mm 2 mps 739 mmHg 92%
    03:00 +14°C° 0 mm 2 mps 738 mmHg 92%
    04:00 +13°C° 0 mm 2 mps 738 mmHg 92%
    05:00 +15°C° 0 mm 2 mps 738 mmHg 87%
    06:00 +17°C° 0 mm 2 mps 738 mmHg 83%
    07:00 +19°C° 0 mm 2 mps 738 mmHg 79%
    08:00 +20°C° 0.5 mm 3 mps 738 mmHg 74%
    09:00 +22°C° 0.5 mm 3 mps 738 mmHg 70%
    10:00 +23°C° 0.5 mm 4 mps 738 mmHg 65%
    11:00 +25°C° 0.7 mm 3 mps 738 mmHg 64%
    12:00 +25°C° 0.7 mm 3 mps 738 mmHg 63%
    13:00 +25°C° 0.7 mm 2 mps 738 mmHg 61%
    14:00 +25°C° 0.6 mm 2 mps 738 mmHg 62%
    15:00 +25°C° 0.6 mm 2 mps 737 mmHg 63%
    16:00 +25°C° 0.6 mm 2 mps 737 mmHg 65%
    17:00 +23°C° 0.2 mm 2 mps 737 mmHg 70%
    18:00 +21°C° 0.2 mm 2 mps 736 mmHg 75%
    19:00 +20°C° 0.2 mm 2 mps 736 mmHg 81%
    20:00 +19°C° 0 mm 2 mps 736 mmHg 82%
    21:00 +18°C° 0 mm 2 mps 736 mmHg 83%
    22:00 +18°C° 0 mm 2 mps 736 mmHg 85%
    23:00 +17°C° 0.4 mm 2 mps 736 mmHg 88%

    Day after tomorrow, 28 May, Tuesday

    Time Temperature Precipitation Wind Pressure Humidity
    00:00 +17°C° 0.4 mm 2 mps 735 mmHg 90%
    01:00 +17°C° 0.4 mm 2 mps 735 mmHg 93%
    02:00 +16°C° 0.5 mm 2 mps 735 mmHg 94%
    03:00 +16°C° 0.5 mm 1 mps 734 mmHg 95%
    04:00 +16°C° 0.5 mm 1 mps 734 mmHg 96%
    05:00 +18°C° 0 mm 1 mps 734 mmHg 93%
    06:00 +18°C° 0 mm 2 mps 733 mmHg 90%
    07:00 +19°C° 0 mm 2 mps 733 mmHg 88%
    08:00 +21°C° 0 mm 3 mps 733 mmHg 81%
    09:00 +22°C° 0 mm 3 mps 733 mmHg 73%
    10:00 +25°C° 0 mm 4 mps 733 mmHg 66%
    11:00 +24°C° 1.1 mm 3 mps 733 mmHg 69%
    12:00 +24°C° 1.1 mm 3 mps 732 mmHg 72%
    13:00 +22°C° 1.1 mm 3 mps 732 mmHg 75%
    14:00 +24°C° 0.3 mm 3 mps 732 mmHg 73%
    15:00 +24°C° 0.3 mm 3 mps 731 mmHg 71%
    16:00 +25°C° 0.3 mm 3 mps 731 mmHg 69%
    17:00 +23°C° 1.7 mm 2 mps 731 mmHg 74%
    18:00 +21°C° 1.7 mm 2 mps 731 mmHg 80%
    19:00 +19°C° 1.7 mm 2 mps 731 mmHg 86%
    20:00 +18°C° 0.2 mm 3 mps 731 mmHg 88%
    21:00 +17°C° 0.2 mm 3 mps 732 mmHg 91%
    22:00 +15°C° 0.2 mm 4 mps 732 mmHg 93%
    23:00 +15°C° 0 mm 4 mps 732 mmHg 94%

    29 May, Wednesday

    Time Temperature Precipitation Wind Pressure Humidity
    00:00 +14°C° 0 mm 4 mps 732 mmHg 95%
    01:00 +14°C° 0 mm 4 mps 732 mmHg 96%
    02:00 +13°C° 0 mm 4 mps 733 mmHg 96%
    03:00 +13°C° 0 mm 4 mps 733 mmHg 95%
    04:00 +13°C° 0 mm 4 mps 733 mmHg 95%
    05:00 +13°C° 0.2 mm 4 mps 734 mmHg 94%
    06:00 +12°C° 0.2 mm 4 mps 734 mmHg 94%
    07:00 +12°C° 0.2 mm 5 mps 735 mmHg 93%
    08:00 +12°C° 0.4 mm 5 mps 735 mmHg 93%
    09:00 +12°C° 0.4 mm 5 mps 736 mmHg 92%
    10:00 +10°C° 0.4 mm 5 mps 736 mmHg 92%
    11:00 +12°C° 0.1 mm 5 mps 737 mmHg 89%
    12:00 +11°C° 0.1 mm 6 mps 737 mmHg 87%
    13:00 +13°C° 0.1 mm 6 mps 738 mmHg 85%
    14:00 +13°C° 0.2 mm 6 mps 738 mmHg 85%
    15:00 +12°C° 0.2 mm 5 mps 739 mmHg 86%
    16:00 +12°C° 0.2 mm 5 mps 739 mmHg 87%
    17:00 +11°C° 0.4 mm 4 mps 739 mmHg 88%
    18:00 +11°C° 0.4 mm 3 mps 740 mmHg 90%
    19:00 +10°C° 0.4 mm 3 mps 740 mmHg 91%
    20:00 +10°C° 0.1 mm 3 mps 741 mmHg 92%
    21:00 +10°C° 0.1 mm 2 mps 741 mmHg 92%
    22:00 +10°C° 0.1 mm 2 mps 742 mmHg 92%
    23:00 +9°C° 0 mm 2 mps 742 mmHg 91%

    30 May, Thursday

    Time Temperature Precipitation Wind Pressure Humidity
    00:00 +9°C° 0 mm 2 mps 742 mmHg 90%
    01:00 +8°C° 0 mm 2 mps 743 mmHg 90%
    02:00 +8°C° 0.3 mm 2 mps 743 mmHg 89%
    03:00 +7°C° 0.3 mm 2 mps 743 mmHg 89%
    04:00 +7°C° 0.3 mm 2 mps 744 mmHg 89%
    05:00 +7°C° 0.2 mm 2 mps 744 mmHg 87%
    06:00 +8°C° 0.2 mm 2 mps 744 mmHg 84%
    07:00 +8°C° 0.2 mm 2 mps 745 mmHg 81%
    08:00 +9°C° 0 mm 2 mps 745 mmHg 74%
    09:00 +12°C° 0 mm 2 mps 745 mmHg 67%
    10:00 +13°C° 0 mm 2 mps 746 mmHg 61%
    11:00 +14°C° 0 mm 2 mps 745 mmHg 58%
    12:00 +15°C° 0 mm 2 mps 745 mmHg 55%
    13:00 +16°C° 0 mm 2 mps 745 mmHg 52%
    14:00 +16°C° 0 mm 2 mps 745 mmHg 53%
    15:00 +17°C° 0 mm 2 mps 745 mmHg 53%
    16:00 +18°C° 0 mm 1 mps 745 mmHg 54%
    17:00 +16°C° 0 mm 1 mps 745 mmHg 60%
    18:00 +15°C° 0 mm 1 mps 745 mmHg 67%
    19:00 +14°C° 0 mm 1 mps 745 mmHg 73%
    20:00 +13°C° 0 mm 1 mps 745 mmHg 76%
    21:00 +11°C° 0 mm 1 mps 745 mmHg 78%
    22:00 +10°C° 0 mm 1 mps 745 mmHg 81%
    23:00 +10°C° 0 mm 1 mps 745 mmHg 81%

    31 May, Friday

    Time Temperature Precipitation Wind Pressure Humidity
    00:00 +10°C° 0 mm 1 mps 744 mmHg 81%
    01:00 +9°C° 0 mm 1 mps 744 mmHg 82%
    02:00 +9°C° 0 mm 1 mps 744 mmHg 82%
    03:00 +9°C° 0 mm 1 mps 744 mmHg 82%
    04:00 +8°C° 0 mm 1 mps 743 mmHg 82%
    05:00 +10°C° 0 mm 1 mps 743 mmHg 78%
    06:00 +12°C° 0 mm 2 mps 743 mmHg 74%
    07:00 +14°C° 0 mm 2 mps 743 mmHg 70%
    08:00 +15°C° 0 mm 2 mps 742 mmHg 65%
    09:00 +18°C° 0 mm 1 mps 742 mmHg 60%
    10:00 +19°C° 0 mm 1 mps 742 mmHg 56%
    11:00 +20°C° 0 mm 1 mps 742 mmHg 53%
    12:00 +21°C° 0 mm 1 mps 741 mmHg 51%
    13:00 +20°C° 0 mm 2 mps 741 mmHg 49%
    14:00 +20°C° 0.1 mm 2 mps 741 mmHg 54%
    15:00 +20°C° 0.1 mm 2 mps 741 mmHg 58%
    16:00 +20°C° 0.1 mm 3 mps 742 mmHg 62%
    17:00 +18°C° 0.8 mm 4 mps 742 mmHg 72%
    18:00 +14°C° 0.8 mm 6 mps 742 mmHg 83%
    19:00 +11°C° 0.8 mm 7 mps 743 mmHg 93%
    20:00 +9°C° 1.1 mm 7 mps 743 mmHg 91%
    21:00 +8°C° 1.1 mm 6 mps 744 mmHg 90%
    22:00 +5°C° 1.1 mm 6 mps 745 mmHg 88%
    23:00 +6°C° 0 mm 5 mps 745 mmHg 88%
    Show more